EW2348 Weather Reports


Display with metric or nautical units.
time (UTC)temp
F
wind
direction
speed
MPH
gust
MPH
rain 1hr
in
rain 24hr
in
rain mn
in
humidity
%
barometer
mb
20140728162018 72 218 2.0 8.0 0.00 0.12 0.00 75 1014.4
20140728155023 70 181 0.0 5.0 0.00 0.12 0.00 81 1014.1
20140728154019 70 205 0.0 6.0 0.00 0.14 0.00 78 1013.9
20140728152020 69 190 3.0 8.0 0.00 0.17 0.00 82 1013.8
20140728151017 68 203 3.0 8.0 0.00 0.17 0.00 83 1013.7
20140728150017 67 208 3.0 8.0 0.00 0.17 0.00 86 1013.7
20140728145017 68 175 1.0 9.0 0.00 0.18 0.00 84 1013.6
20140728142017 67 184 1.0 8.0 0.00 0.19 0.00 87 1013.3
20140728141016 67 152 2.0 7.0 0.00 0.19 0.00 88 1013.2
20140728135016 67 230 2.0 6.0 0.00 0.19 0.00 86 1013.1
20140728130015 67 210 2.0 8.0 0.00 0.21 0.00 87 1012.5
20140728125016 67 159 2.0 11.0 0.00 0.22 0.00 86 1012.5
20140728122014 66 170 3.0 8.0 0.00 0.27 0.00 86 1012.1
20140728115014 64 207 2.0 4.0 0.00 0.31 0.00 87 1012.0
20140728114014 63 183 2.0 5.0 0.00 0.31 0.00 86 1011.8
20140728112014 62 195 2.0 6.0 0.00 0.31 0.00 85 1011.7
20140728111013 62 183 2.0 6.0 0.00 0.31 0.00 85 1011.7
20140728105013 62 178 3.0 5.0 0.00 0.31 0.00 87 1011.6
20140728104013 62 177 2.0 6.0 0.00 0.31 0.00 88 1011.5
20140728103013 62 194 2.0 8.0 0.00 0.31 0.00 88 1011.4
20140728102013 62 177 4.0 9.0 0.00 0.31 0.00 89 1011.3
20140728101012 62 177 3.0 7.0 0.00 0.31 0.00 89 1011.2
20140728100012 63 175 3.0 8.0 0.00 0.31 0.00 89 1011.1
20140728095013 63 176 3.0 7.0 0.00 0.31 0.00 89 1010.8
20140728092012 63 173 4.0 9.0 0.00 0.00 0.00 89 1010.4
20140728091011 63 186 5.0 10.0 0.00 0.31 0.00 89 1010.4
20140728090012 64 185 4.0 8.0 0.00 0.31 0.00 89 1010.3
20140728085012 64 191 4.0 11.0 0.00 0.31 0.00 89 1010.3
20140728080010 64 182 4.0 8.0 0.00 1.24 0.00 88 1010.1
20140728073011 64 187 4.0 8.0 0.00 0.31 0.00 88 1009.8
20140728072010 64 190 3.0 7.0 0.00 0.31 0.00 88 1009.9
20140728071010 64 187 4.0 7.0 0.00 0.21 0.00 88 1009.8
20140728064010 65 176 2.0 4.0 0.00 0.31 0.00 88 1009.6
20140728062009 66 171 2.0 4.0 0.00 0.31 0.00 89 1009.7
20140728055009 67 181 2.0 5.0 0.00 0.31 0.00 87 1009.8
20140728054009 67 179 2.0 6.0 0.00 0.31 0.00 87 1009.7
20140728052009 67 176 2.0 8.0 0.00 0.31 0.00 88 1009.4
20140728051008 67 188 2.0 6.0 0.00 0.31 0.00 87 1009.3
20140728045008 68 162 2.0 7.0 0.00 0.31 0.00 86 1009.2
20140728044008 68 173 3.0 8.0 0.01 0.32 0.00 85 1009.0
20140728043008 69 187 2.0 8.0 0.01 0.32 0.00 84 1009.1
20140728040007 68 198 2.0 4.0 0.01 0.34 0.00 64 1009.2
20140728033007 69 189 3.0 6.0 0.00 0.34 0.33 22 1009.1
20140728024006 69 174 2.0 4.0 0.00 0.34 0.33 36 1008.9
20140728022006 69 217 4.0 8.0 0.00 0.34 0.33 66 1008.8
20140728021006 69 217 4.0 8.0 0.00 0.34 0.33 66 1008.7
20140728020005 69 217 4.0 8.0 0.00 0.34 0.33 66 1008.7
20140728015006 69 217 4.0 8.0 0.00 0.34 0.33 66 1008.6
20140728014005 69 217 4.0 8.0 0.00 0.34 0.33 66 1008.4
20140728013004 69 186 4.0 8.0 0.04 0.34 0.33 66 1008.1
20140728012005 69 149 4.0 11.0 0.04 0.34 0.33 66 1008.0
20140728011004 69 172 5.0 11.0 0.04 0.34 0.33 72 1008.0
20140728005005 71 181 5.0 17.0 0.04 0.34 0.33 90 1007.6
20140728004004 71 203 5.0 17.0 0.04 0.34 0.33 90 1007.3
20140728001003 80 205 4.0 9.0 0.00 0.31 0.30 83 1006.2
20140728000004 80 207 2.0 8.0 0.00 0.31 0.30 86 1006.3
20140727235025 80 178 4.0 7.0 0.00 0.31 0.30 87 1006.3
20140727234025 81 170 2.0 4.0 0.00 0.31 0.30 86 1006.2
20140727233025 81 159 1.0 3.0 0.00 0.31 0.30 87 1006.7
20140727232024 82 181 2.0 4.0 0.00 0.31 0.30 86 1006.7
20140727231024 82 181 0.0 2.0 0.00 0.31 0.30 86 1006.6
20140727230024 83 201 0.0 2.0 0.00 0.31 0.30 83 1006.5
20140727225024 82 1 0.0 3.0 0.00 0.31 0.30 86 1006.6
20140727224024 82 161 0.0 4.0 0.00 0.31 0.30 85 1006.5
20140727222023 85 182 3.0 9.0 0.00 0.31 0.30 81 1006.1
20140727215023 83 177 3.0 6.0 0.00 0.31 0.30 81 1006.1
20140727214023 83 185 2.0 10.0 0.00 0.31 0.30 82 1006.2
20140727212023 79 170 5.0 11.0 0.00 0.31 0.30 86 1006.4
20140727210022 79 159 4.0 10.0 0.00 0.31 0.30 87 1006.7
20140727201021 76 176 4.0 11.0 0.00 0.31 0.30 87 1007.5
20140727200022 76 163 4.0 8.0 0.00 0.31 0.30 88 1007.7
20140727195021 76 148 4.0 12.0 0.00 0.31 0.30 88 1007.8
20140727194021 76 162 4.0 11.0 0.00 0.31 0.30 88 1007.8
20140727192021 77 160 5.0 16.0 0.00 0.31 0.30 87 1007.8
20140727182020 74 140 4.0 17.0 0.00 0.31 0.30 85 1008.9
20140727180019 76 166 4.0 16.0 0.00 0.31 0.30 83 1009.1
20140727175019 76 122 4.0 15.0 0.01 0.31 0.30 82 1009.0
20140727174019 77 149 5.0 15.0 0.01 0.31 0.30 80 1009.4
20140727172019 73 130 2.0 9.0 0.07 0.31 0.30 72 1009.9
20140727164018 71 145 4.0 11.0 0.08 0.30 0.28 69 1010.2
20140727163019 72 140 6.0 13.0 0.06 0.25 0.24 80 1010.2